Regional Weather Roundup
Issued by NWS Binghamton, NY

Home | Current Version | Previous Version | Text Only | Print | Product List | Glossary On
Versions: 1 2 3 4 5 6 7 8 9 10 11 12 13 14 15 16 17 18 19 20 21 22 23 24 25 26 27 28 29 30 31 32 33 34 35 36 37 38 39 40 41 42 43 44 45 46 47 48 49 50
000
ASUS41 KBGM 241910
RWRBGM

REGIONAL WEATHER ROUNDUP
NATIONAL WEATHER SERVICE BINGHAMTON NY
200 PM EST FRI FEB 24 2017

Note: "fair" indicates few or no clouds below 12,000 feet with no
significant weather and/or obstructions to visibility.

* = Station(s) that does not report precipitation, such as rain,
snow, etc, also no thunder or fog.

NYZ009-015>018-022>025-036-037-044>046-055>057-062-242000
...Central New York...

CITY           SKY/WX    TMP DP  RH WIND       PRES   REMARKS
Binghamton     MOSUNNY   68  49  50 S20G28    29.76F
Cortland       FAIR      72  52  49 S14G21    29.74F
Dansville      MOSUNNY   76  51  41 S12G22    29.66F
Elmira         MOSUNNY   73  51  46 S13       29.71F
Seneca Falls   CLEAR     70  57  64 SE6       29.69F
Ithaca         MOSUNNY   71  52  50 S15G24    29.73F
Hamilton       SUNNY     72  52  49 S12G17    29.74F
Monticello     MOSUNNY   70  52  52 SW10G17   29.85F
Norwich        PTSUNNY   70  50  49 S10       29.76F
Oneonta        SUNNY     68  48  49 SW7       29.79F
Penn Yan       MOSUNNY   73  50  44 S13G26    29.70F
Rome           CLOUDY    59  51  75 E9        29.74F
Sidney         CLOUDY    73  52  46 SW6       29.76F
Syracuse       CLOUDY    60  51  72 E6        29.70F
$$

PAZ038>040-043-044-047-048-072-242000
...Northeast Pennsylvania...

CITY           SKY/WX    TMP DP  RH WIND       PRES   REMARKS
Hazleton       SUNNY     72  50  46 S10G21    29.86F
Scranton       MOSUNNY   75  50  41 S8G20     29.79F
$$
&&
KEY
WCI = Wind Chill Index
VSB = Visibility
HX  = Heat Index
$$



USA.gov is the U.S. government's official web portal to all federal, state and local government web resources and services.